Flag for India Weather past 2 weeks in Thiruvananthapuram, Kerala, India

Now
81 °F

Haze.


Feels Like: 86 °F
Forecast: 81 / 90 °F
Wind: 5 mph from Northwest

Location: Thiruvananthapuram


UV Index: 10 (Very high)

Visibility: 2 mi


Pressure: 29.80 "Hg

Humidity: 84%

Dew point: 75 °F

Location of ThiruvananthapuramLocation

Historic Weather in Thiruvananthapuram

°F

Thiruvananthapuram temperature yesterday

Maximum temperature yesterday: 91 °F (at 11:40 AM)
Minimum temperature yesterday: 79 °F (at 1:40 AM)
Average temperature yesterday: 87 °F

Past Weeks' High & Low Weather Summary

 TemperatureHumidityPressure
High93 °F (Apr 4, 1:40 PM)94% (Apr 7, 10:40 PM)29.92 "Hg (Apr 7, 10:40 PM)
Low75 °F (Apr 10, 7:40 PM)58% (Apr 11, 8:40 PM)29.71 "Hg (Apr 4, 4:40 PM)
Average85 °F76%29.82 "Hg
* Reported Apr 4 7:40 AM — Apr 19 6:40 AM, Thiruvananthapuram, Weather by CustomWeather, © 2014

Note: Actual official high and low records may vary slightly from our data, if they occured in-between our weather recording intervals... More about our weather records

Advertising

Historic Weather Conditions — Data for Previous 24 hours

 ConditionsComfort  
Time TempWeatherWind HumidityBarometerVisibility
6:40 AM
Apr 19
81 °FHaze.5 mph84%29.80 "Hg2 mi
5:40 AM81 °FHaze.5 mph84%29.80 "Hg2 mi
4:40 AM81 °FHaze.5 mph84%29.77 "Hg2 mi
3:40 AM82 °FHaze.6 mph79%29.80 "Hg2 mi
2:40 AM82 °FHaze.6 mph79%29.80 "Hg2 mi
1:40 AM82 °FHaze.5 mph79%29.80 "Hg2 mi
12:40 AM82 °FHaze.6 mph79%29.83 "Hg2 mi
11:40 PM
Apr 18
82 °FHaze.5 mph79%29.86 "Hg2 mi
10:40 PM84 °FHaze.5 mph74%29.86 "Hg2 mi
9:40 PM84 °FHaze.5 mph74%29.86 "Hg3 mi
8:40 PM84 °FHaze.5 mph74%29.86 "Hg3 mi
7:40 PM86 °FHaze.8 mph70%29.83 "Hg3 mi
6:40 PM86 °FHaze.9 mph70%29.77 "Hg3 mi
5:40 PM88 °FPassing clouds.10 mph70%29.74 "Hg4 mi
4:40 PM90 °FPassing clouds.12 mph67%29.74 "Hg4 mi
3:40 PM90 °FPassing clouds.13 mph71%29.77 "Hg4 mi
2:40 PM91 °FPassing clouds.13 mph67%29.77 "Hg4 mi
1:40 PM91 °FPassing clouds.13 mph63%29.80 "Hg4 mi
12:40 PM91 °FPassing clouds.8 mph67%29.83 "Hg4 mi
11:40 AM91 °FPassing clouds.8 mph67%29.83 "Hg4 mi
10:40 AM90 °FPassing clouds.7 mph63%29.86 "Hg4 mi
9:40 AM88 °FSunny.8 mph66%29.86 "Hg4 mi
Weather by CustomWeather, © 2014

See weather overview